Location: Newark
(60.0000°N, 100.0000°E)
Time: 08:24:52
(UTC+00:00)

N. Korean satellite - Pass Details

Date: 23 November 2019
Orbit: 456 x 506 km, 97.2° (Epoch: 09 December)

Event Time Altitude Azimuth Distance (km) Brightness Sun altitude
Rises 10:22:21 0° 175° (S) 2,587 10.5 -12.2°
Reaches altitude 10° 10:24:27 10° 180° (S) 1,712 9.6 -12.5°
Maximum altitude 10:28:05 54° 259° (W) 623 7.5 -12.9°
Drops below altitude 10° 10:31:46 10° 338° (NNW) 1,736 9.4 -13.3°
Sets 10:33:55 0° 343° (NNW) 2,626 10.3 -13.6°
